Regional Weather Roundup
Issued by NWS Binghamton, NY

Home | Current Version | Previous Version | Text Only | Print | Product List | Glossary On
Versions: 1 2 3 4 5 6 7 8 9 10 11 12 13 14 15 16 17 18 19 20 21 22 23 24 25 26 27 28 29 30 31 32 33 34 35 36 37 38 39 40 41 42 43 44 45 46 47 48 49 50
000
ASUS41 KBGM 281710
RWRBGM
RWRBGM
BINGHAMTON REGIONAL WEATHER ROUNDUP
NATIONAL WEATHER SERVICE BINGHAMTON NY
100 PM EDT THU MAY 28 2015

Note: "fair" indicates few or no clouds below 12,000 feet with no
significant weather and/or obstructions to visibility.

* = Station(s) that does not report precipitation, such as rain,
snow, etc, also no thunder or fog.

!NYZ009-015>018-022>025-036-037-044>046-055>057-062-281800
...CENTRAL NEW YORK...

CITY           SKY/WX    TMP DP  RH WIND       PRES   REMARKS
BINGHAMTON     MOSUNNY   71  56  58 NW14G20   30.21R
CORTLAND       PTSUNNY   68  54  60 W12G20    30.25R
DANSVILLE      MOSUNNY   73  55  53 NW13      30.25R
ELMIRA         MOSUNNY   76  54  46 N10G21    30.22R
ITHACA         PTSUNNY   69  55  60 NW13G20   30.25R
MONTICELLO     MOSUNNY   75  57  53 W10G21    30.19S
NORWICH        MOSUNNY   72  54  53 W12G18    30.20R
ONEONTA        PTSUNNY   72  54  53 W13G20    30.19R
PENN YAN       MOSUNNY   71  54  54 NW9       30.24R
ROME           PTSUNNY   65  54  67 W16G25    30.20R
SIDNEY         PTSUNNY   75  59  57 W12       30.18R
SYRACUSE       PTSUNNY   68  56  65 W18       30.21R
$$

!PAZ038>040-043-044-047-048-072-281800
...NORTHEAST PENNSYLVANIA...

CITY           SKY/WX    TMP DP  RH WIND       PRES   REMARKS
HAZLETON       MOSUNNY   77  59  53 W5        30.25S
SCRANTON       PTSUNNY   80  60  50 SW8       30.17S
TOWANDA*       MOSUNNY   77  54  44 W13G22    30.20S
$$
&&
KEY
WCI = WIND CHILL INDEX
VSB = VISIBILITY
HX  = HEAT INDEX
$$


USA.gov is the U.S. government's official web portal to all federal, state and local government web resources and services.